Location: ???????
(54.6339°N, 39.4245°E)
Time: 13:11:28
(UTC+00:00)

BREEZE-M R/B - Pass Details

Date: 19 May 2025
Orbit: 537 x 26536 km, 49.1° (Epoch: 15 June)

Event Time Altitude Azimuth Distance (km) Brightness Sun altitude
Rises 20:15:42 0° 289° (WNW) 8,372 8.8 -14.2°
Reaches altitude 10° 20:23:52 10° 282° (WNW) 4,956 7.5 -14.5°
Maximum altitude 20:32:00 28° 227° (SW) 1,744 4.6 -14.7°
Enters shadow 20:33:54 21° 189° (S) 1,667 4.2 -14.8°
